Location: Bavegemberg
(50.9500°N, 3.8833°E)
Time: 04:17:17
(UTC+00:00)

A-11 Canister half - Visible Passes

Search period start: 14 May 2026 00:00
Search period end: 24 May 2026 00:00
Orbit: 1523 x 1685 km, 47.3° (Epoch: 13 May)

Date Brightness Start Highest point End Pass type
(mag) Time Alt. Az. Time Alt. Az. Time Alt. Az.
14 May 10.1 00:42:06 10° W 00:48:48 21° SW 00:49:26 20° SW visible
14 May 9.2 20:09:28 10° W 20:19:10 72° S 20:29:11 10° ESE visible
14 May 9.3 22:14:14 10° W 22:23:39 51° SSW 22:29:52 24° SE visible
15 May 10.1 00:20:06 10° W 00:27:02 22° SW 00:28:06 21° SW visible
15 May 9.2 19:47:38 10° W 19:57:19 73° S 20:07:19 10° ESE visible
15 May 9.3 21:52:23 10° W 22:01:50 52° SSW 22:08:37 21° SE visible
15 May 10.1 23:58:07 10° W 00:05:16 23° SW 00:06:51 22° SW visible
16 May 9.3 21:30:32 10° W 21:39:59 54° SSW 21:47:25 19° SE visible
16 May 10.1 23:36:09 10° W 23:43:29 24° SW 23:45:40 22° SSW visible
17 May 9.3 21:08:41 10° W 21:18:08 55° SSW 21:26:18 16° SE visible
17 May 10.0 23:14:11 10° W 23:21:42 25° SW 23:24:33 22° SSW visible
18 May 9.3 20:46:50 10° W 20:56:18 56° SSW 21:05:14 13° SE visible
18 May 10.1 22:52:15 10° W 22:59:55 26° SW 23:03:29 22° SSW visible
19 May 9.4 20:25:00 10° W 20:34:27 58° SSW 20:44:12 10° SE visible
19 May 10.1 22:30:19 10° W 22:38:08 28° SW 22:42:28 20° S visible
20 May 9.4 20:03:09 10° W 20:12:36 59° SSW 20:22:22 10° SE visible
20 May 10.0 22:08:23 10° W 22:16:21 29° SW 22:21:29 19° S visible
21 May 10.0 21:46:29 10° W 21:54:33 30° SW 22:00:34 17° S visible
22 May 10.0 21:24:35 10° W 21:32:46 31° SW 21:39:40 14° S visible
23 May 10.0 21:02:41 10° W 21:10:58 33° SW 21:18:50 12° SSE visible
